DW8320 Weather Reports


Display with metric or nautical units.
time (UTC)temp
F
wind
direction
speed
MPH
gust
MPH
rain 1hr
in
rain 24hr
in
rain mn
in
humidity
%
barometer
mb
20260902203540 97 250 0.0 2.0 0.00 0.00 0.00 47 1015.0
20260902203027 97 273 0.0 2.0 0.00 0.00 0.00 46 1014.9
20260902202508 96 292 0.0 2.0 0.00 0.00 0.00 48 1014.9
20260902202056 96 213 0.0 3.0 0.00 0.00 0.00 47 1015.0
20260902201553 95 293 0.0 3.0 0.00 0.00 0.00 48 1014.9
20260902201046 95 11 0.0 2.0 0.00 0.00 0.00 48 1015.0
20260902200530 96 167 0.0 2.0 0.00 0.00 0.00 48 1015.0
20260902200136 96 90 0.0 2.0 0.00 0.00 0.00 47 1015.0
20260902195547 96 4 0.0 2.0 0.00 0.00 0.00 51 1015.1
20260902195035 96 174 0.0 3.0 0.00 0.00 0.00 49 1015.2
20260902194521 95 133 0.0 4.0 0.00 0.00 0.00 48 1015.3
20260902194006 96 58 0.0 4.0 0.00 0.00 0.00 48 1015.2
20260902193558 96 219 1.0 4.0 0.00 0.00 0.00 46 1015.4
20260902193048 97 323 1.0 4.0 0.00 0.00 0.00 45 1015.4
20260902192532 97 237 0.0 2.0 0.00 0.00 0.00 48 1015.5
20260902192020 97 276 0.0 2.0 0.00 0.00 0.00 48 1015.6
20260902191506 97 251 1.0 3.0 0.00 0.00 0.00 48 1015.6
20260902191057 97 243 0.0 4.0 0.00 0.00 0.00 45 1015.7
20260902190545 97 321 0.0 4.0 0.00 0.00 0.00 48 1015.8
20260902190012 97 251 0.0 1.0 0.00 0.00 0.00 47 1015.8
20260902185602 96 239 0.0 2.0 0.00 0.00 0.00 47 1015.8
20260902185052 96 94 0.0 4.0 0.00 0.00 0.00 45 1015.8
20260902184546 96 313 0.0 4.0 0.00 0.00 0.00 46 1015.8
20260902184037 97 269 0.0 3.0 0.00 0.00 0.00 45 1015.8
20260902183526 97 129 0.0 3.0 0.00 0.00 0.00 46 1015.8
20260902183014 97 226 1.0 3.0 0.00 0.00 0.00 48 1016.0
20260902182553 97 101 0.0 2.0 0.00 0.00 0.00 49 1016.0
20260902182046 96 136 0.0 2.0 0.00 0.00 0.00 49 1016.0
20260902181532 96 210 0.0 6.0 0.00 0.00 0.00 50 1016.0
20260902181018 95 343 0.0 6.0 0.00 0.00 0.00 46 1016.0
20260902180503 96 262 0.0 3.0 0.00 0.00 0.00 49 1016.1
20260902180056 95 115 0.0 4.0 0.00 0.00 0.00 48 1016.2
20260902175534 94 264 0.0 4.0 0.00 0.00 0.00 52 1016.2
20260902175022 94 176 1.0 3.0 0.00 0.00 0.00 54 1016.3
20260902174506 94 46 0.0 3.0 0.00 0.00 0.00 50 1016.3
20260902174054 94 36 0.0 2.0 0.00 0.00 0.00 51 1016.4
20260902173546 94 354 1.0 2.0 0.00 0.00 0.00 52 1016.5
20260902173058 94 327 0.0 2.0 0.00 0.00 0.00 54 1016.4
20260902172524 95 332 0.0 2.0 0.00 0.00 0.00 52 1016.4
20260902172009 96 25 0.0 2.0 0.00 0.00 0.00 49 1016.5
20260902171602 95 245 0.0 2.0 0.00 0.00 0.00 51 1016.6
20260902171043 95 250 0.0 1.0 0.00 0.00 0.00 55 1016.6
20260902170529 95 41 0.0 1.0 0.00 0.00 0.00 55 1016.6
20260902170135 94 218 0.0 1.0 0.00 0.00 0.00 54 1016.7
20260902165546 94 77 0.0 7.0 0.00 0.00 0.00 52 1016.8
20260902165039 94 30 0.0 7.0 0.00 0.00 0.00 54 1016.8
20260902164525 94 302 0.0 1.0 0.00 0.00 0.00 56 1016.9
20260902164004 94 322 0.0 4.0 0.00 0.00 0.00 54 1016.9
20260902163554 94 350 0.0 4.0 0.00 0.00 0.00 54 1016.9
20260902163041 94 353 0.0 4.0 0.00 0.00 0.00 53 1016.8
20260902162532 93 322 0.0 4.0 0.00 0.00 0.00 54 1016.9
20260902162024 93 142 0.0 6.0 0.00 0.00 0.00 53 1016.9
20260902161515 93 205 0.0 6.0 0.00 0.00 0.00 54 1017.0
20260902161053 93 197 0.0 2.0 0.00 0.00 0.00 60 1017.0
20260902160541 93 302 0.0 2.0 0.00 0.00 0.00 54 1016.9
20260902160010 93 282 0.0 4.0 0.00 0.00 0.00 56 1017.0
20260902155605 93 146 0.0 4.0 0.00 0.00 0.00 57 1017.0
20260902155052 92 147 0.0 3.0 0.00 0.00 0.00 58 1017.1
20260902154545 92 238 0.0 2.0 0.00 0.00 0.00 56 1017.0
20260902154031 92 263 0.0 1.0 0.00 0.00 0.00 60 1017.1
20260902153508 92 113 0.0 2.0 0.00 0.00 0.00 57 1017.2
20260902153052 91 338 0.0 2.0 0.00 0.00 0.00 60 1017.1
20260902152541 91 110 0.0 1.0 0.00 0.00 0.00 61 1017.2
20260902152029 90 109 0.0 3.0 0.00 0.00 0.00 59 1017.2
20260902151508 90 11 0.0 1.0 0.00 0.00 0.00 60 1017.2
20260902151004 90 115 0.0 1.0 0.00 0.00 0.00 61 1017.3
20260902150552 90 120 0.0 2.0 0.00 0.00 0.00 62 1017.3
20260902150042 89 28 0.0 2.0 0.00 0.00 0.00 62 1017.3
20260902145502 89 326 0.0 2.0 0.00 0.00 0.00 65 1017.3
20260902145051 89 104 0.0 2.0 0.00 0.00 0.00 63 1017.3
20260902144539 89 97 0.0 1.0 0.00 0.00 0.00 63 1017.3
20260902144030 88 58 0.0 1.0 0.00 0.00 0.00 67 1017.3
20260902143518 88 60 0.0 1.0 0.00 0.00 0.00 66 1017.3
20260902143103 87 56 0.0 1.0 0.00 0.00 0.00 67 1017.3
20260902142546 87 42 0.0 4.0 0.00 0.00 0.00 69 1017.3
20260902142033 86 207 0.0 4.0 0.00 0.00 0.00 67 1017.2
20260902141520 86 97 0.0 1.0 0.00 0.00 0.00 70 1017.2
20260902141106 86 338 0.0 2.0 0.00 0.00 0.00 69 1017.2
20260902140550 85 64 0.0 2.0 0.00 0.00 0.00 69 1017.3
20260902140042 84 96 0.0 1.0 0.00 0.00 0.00 70 1017.3
20260902135506 84 93 0.0 2.0 0.00 0.00 0.00 70 1017.3
20260902135058 83 35 0.0 2.0 0.00 0.00 0.00 71 1017.3
20260902134548 83 110 0.0 1.0 0.00 0.00 0.00 74 1017.3
20260902134040 83 91 0.0 1.0 0.00 0.00 0.00 77 1017.4
20260902133530 82 91 0.0 1.0 0.00 0.00 0.00 76 1017.4
20260902133022 81 93 0.0 1.0 0.00 0.00 0.00 79 1017.3
20260902132506 80 88 0.0 1.0 0.00 0.00 0.00 80 1017.2
20260902132056 79 102 0.0 1.0 0.00 0.00 0.00 81 1017.3
20260902131553 79 102 0.0 1.0 0.00 0.00 0.00 81 1017.2
20260902131034 78 113 0.0 0.0 0.00 0.00 0.00 86 1017.2
20260902130520 77 113 0.0 0.0 0.00 0.00 0.00 85 1017.3
20260902130104 76 113 0.0 0.0 0.00 0.00 0.00 87 1017.2
20260902125540 76 113 0.0 0.0 0.00 0.00 0.00 89 1017.2
20260902125030 75 113 0.0 0.0 0.00 0.00 0.00 91 1017.3
20260902124520 74 113 0.0 0.0 0.00 0.00 0.00 93 1017.3
20260902124004 74 113 0.0 0.0 0.00 0.00 0.00 94 1017.2
20260902123556 73 113 0.0 0.0 0.00 0.00 0.00 95 1017.2
20260902123109 72 113 0.0 0.0 0.00 0.00 0.00 96 1017.1
20260902122532 72 113 0.0 0.0 0.00 0.00 0.00 96 1017.1
20260902122015 71 113 0.0 0.0 0.00 0.00 0.00 96 1017.1
20260902121506 71 113 0.0 0.0 0.00 0.00 0.00 96 1017.1
20260902121055 70 113 0.0 0.0 0.00 0.00 0.00 96 1017.0
20260902120536 70 113 0.0 0.0 0.00 0.00 0.00 96 1017.0
20260902120005 70 113 0.0 0.0 0.00 0.00 0.00 96 1017.1
20260902115557 70 113 0.0 0.0 0.00 0.00 0.00 96 1017.0
20260902115044 69 113 0.0 0.0 0.00 0.00 0.00 96 1016.9
20260902114539 69 113 0.0 0.0 0.00 0.00 0.00 96 1016.9
20260902114012 69 113 0.0 0.0 0.00 0.00 0.00 96 1016.8
20260902113604 69 113 0.0 0.0 0.00 0.00 0.00 96 1016.8
20260902113053 69 113 0.0 0.0 0.00 0.00 0.00 96 1016.7
20260902112544 69 113 0.0 0.0 0.00 0.00 0.00 96 1016.7
20260902112031 69 113 0.0 0.0 0.00 0.00 0.00 96 1016.6
20260902111515 69 113 0.0 0.0 0.00 0.00 0.00 96 1016.5
20260902111005 69 113 0.0 0.0 0.00 0.00 0.00 96 1016.5
20260902110551 69 113 0.0 0.0 0.00 0.00 0.00 96 1016.5
20260902110053 69 113 0.0 0.0 0.00 0.00 0.00 96 1016.5
20260902105524 69 113 0.0 0.0 0.00 0.00 0.00 96 1016.5
20260902105002 69 113 0.0 0.0 0.00 0.00 0.00 96 1016.7
20260902104553 69 113 0.0 0.0 0.00 0.00 0.00 95 1016.6
20260902104040 69 113 0.0 0.0 0.00 0.00 0.00 95 1016.6
20260902103530 69 113 0.0 0.0 0.00 0.00 0.00 95 1016.6
20260902103012 69 113 0.0 0.0 0.00 0.00 0.00 95 1016.6
20260902102600 69 113 0.0 0.0 0.00 0.00 0.00 95 1016.6
20260902102054 69 113 0.0 0.0 0.00 0.00 0.00 95 1016.5
20260902101553 69 113 0.0 0.0 0.00 0.00 0.00 95 1016.5
20260902101034 69 113 0.0 0.0 0.00 0.00 0.00 95 1016.5
20260902100516 69 113 0.0 0.0 0.00 0.00 0.00 95 1016.5
20260902100109 69 113 0.0 0.0 0.00 0.00 0.00 95 1016.5
20260902095544 69 113 0.0 0.0 0.00 0.00 0.00 95 1016.4
20260902095036 69 113 0.0 0.0 0.00 0.00 0.00 95 1016.4
20260902094526 69 113 0.0 0.0 0.00 0.00 0.00 95 1016.4
20260902094008 69 113 0.0 0.0 0.00 0.00 0.00 95 1016.4
20260902093556 69 113 0.0 0.0 0.00 0.00 0.00 95 1016.4
20260902093048 70 113 0.0 0.0 0.00 0.00 0.00 95 1016.4
20260902092534 69 113 0.0 0.0 0.00 0.00 0.00 95 1016.4
20260902092018 70 113 0.0 0.0 0.00 0.00 0.00 95 1016.4
20260902091509 70 113 0.0 0.0 0.00 0.00 0.00 95 1016.4
20260902091056 70 113 0.0 0.0 0.00 0.00 0.00 95 1016.3
20260902090543 70 113 0.0 0.0 0.00 0.00 0.00 95 1016.3
20260902090010 70 113 0.0 0.0 0.00 0.00 0.00 95 1016.3
20260902085502 70 113 0.0 0.0 0.00 0.00 0.00 95 1016.2
20260902085046 70 113 0.0 0.0 0.00 0.00 0.00 95 1016.2
20260902084546 70 113 0.0 0.0 0.00 0.00 0.00 95 1016.1
20260902084024 70 113 0.0 0.0 0.00 0.00 0.00 95 1016.0
20260902083504 70 113 0.0 0.0 0.00 0.00 0.00 95 1015.8
20260902083055 70 113 0.0 0.0 0.00 0.00 0.00 95 1015.8
20260902082540 70 113 0.0 0.0 0.00 0.00 0.00 95 1015.8
20260902082023 70 113 0.0 0.0 0.00 0.00 0.00 95 1015.8
20260902081517 70 113 0.0 0.0 0.00 0.00 0.00 95 1015.8
20260902081050 70 113 0.0 0.0 0.00 0.00 0.00 95 1015.7
20260902080538 70 113 0.0 0.0 0.00 0.00 0.00 95 1015.6
20260902080006 70 113 0.0 0.0 0.00 0.00 0.00 95 1015.7
20260902075555 70 113 0.0 0.0 0.00 0.00 0.00 95 1015.7
20260902075046 70 113 0.0 0.0 0.00 0.00 0.00 95 1015.7
20260902074532 70 113 0.0 0.0 0.00 0.00 0.00 95 1015.6
20260902074015 70 113 0.0 0.0 0.00 0.00 0.00 95 1015.7
20260902073506 70 113 0.0 0.0 0.00 0.00 0.00 94 1015.7
20260902073056 70 113 0.0 0.0 0.00 0.00 0.00 94 1015.7
20260902072543 70 113 0.0 0.0 0.00 0.00 0.00 94 1015.7
20260902072029 70 113 0.0 0.0 0.00 0.00 0.00 94 1015.6
20260902071512 70 113 0.0 0.0 0.00 0.00 0.00 94 1015.6
20260902071007 71 113 0.0 0.0 0.00 0.00 0.00 94 1015.6
20260902070558 71 113 0.0 0.0 0.00 0.00 0.00 94 1015.6
20260902070052 71 113 0.0 0.0 0.00 0.00 0.00 94 1015.7
20260902065516 71 113 0.0 0.0 0.00 0.00 0.00 94 1015.6
20260902065007 71 113 0.0 0.0 0.00 0.00 0.00 94 1015.7
20260902064557 71 113 0.0 0.0 0.00 0.00 0.00 94 1015.6
20260902064046 71 113 0.0 0.0 0.00 0.00 0.00 94 1015.6
20260902063534 71 113 0.0 0.0 0.00 0.00 0.00 94 1015.6
20260902063017 71 113 0.0 0.0 0.00 0.00 0.00 94 1015.6
20260902062505 71 113 0.0 0.0 0.00 0.00 0.00 94 1015.7
20260902062054 71 113 0.0 0.0 0.00 0.00 0.00 93 1015.6
20260902061606 71 113 0.0 0.0 0.00 0.00 0.00 94 1015.7
20260902061031 71 113 0.0 0.0 0.00 0.00 0.00 93 1015.7
20260902060514 71 113 0.0 0.0 0.00 0.00 0.00 93 1015.7
20260902060115 71 113 0.0 0.0 0.00 0.00 0.00 93 1015.6
20260902055538 71 113 0.0 0.0 0.00 0.00 0.00 93 1015.7
20260902055024 71 113 0.0 0.0 0.00 0.00 0.00 93 1015.7
20260902054511 72 113 0.0 0.0 0.00 0.00 0.00 93 1015.7
20260902054000 72 113 0.0 0.0 0.00 0.00 0.00 93 1015.6
20260902053550 72 113 0.0 0.0 0.00 0.00 0.00 93 1015.7
20260902053043 72 113 0.0 0.0 0.00 0.00 0.00 92 1015.7
20260902052538 72 113 0.0 0.0 0.00 0.00 0.00 92 1015.8
20260902052024 72 113 0.0 0.0 0.00 0.00 0.00 92 1015.8
20260902051515 72 113 0.0 0.0 0.00 0.00 0.00 92 1015.7
20260902051100 72 113 0.0 0.0 0.00 0.00 0.00 92 1015.8
20260902050547 72 113 0.0 0.0 0.00 0.00 0.00 92 1015.8
20260902050015 72 113 0.0 0.0 0.00 0.00 0.00 91 1015.8
20260902045505 73 113 0.0 0.0 0.00 0.00 0.00 91 1015.7
20260902045059 73 113 0.0 0.0 0.00 0.00 0.00 90 1015.7
20260902044543 73 113 0.0 0.0 0.00 0.00 0.00 90 1015.7
20260902044035 73 113 0.0 0.0 0.00 0.00 0.00 90 1015.7
20260902043518 73 113 0.0 0.0 0.00 0.00 0.00 90 1015.7
20260902043001 73 113 0.0 0.0 0.00 0.00 0.00 90 1015.7
20260902042553 73 113 0.0 0.0 0.00 0.00 0.00 90 1015.7
20260902042040 73 113 0.0 0.0 0.00 0.00 0.00 89 1015.7
20260902041545 73 113 0.0 0.0 0.00 0.00 0.00 90 1015.7
20260902041017 73 113 0.0 0.0 0.00 0.00 0.00 90 1015.7
20260902040556 73 113 0.0 0.0 0.00 0.00 0.00 89 1015.8
20260902040044 73 113 0.0 0.0 0.00 0.00 0.00 89 1015.8
20260902035509 73 113 0.0 0.0 0.00 0.00 0.00 89 1015.8
20260902035105 74 113 0.0 0.0 0.00 0.00 0.00 88 1015.8
20260902034546 74 113 0.0 0.0 0.00 0.00 0.00 89 1015.8
20260902034037 74 113 0.0 0.0 0.00 0.00 0.00 88 1015.8
20260902033526 74 113 0.0 0.0 0.00 0.00 0.00 88 1015.7
20260902033008 74 113 0.0 0.0 0.00 0.00 0.00 88 1015.7
20260902032511 74 113 0.0 0.0 0.00 0.00 0.00 87 1015.7
20260902032002 74 113 0.0 0.0 0.00 0.00 0.00 87 1015.7
20260902031551 75 113 0.0 0.0 0.00 0.00 0.00 86 1015.7
20260902031040 75 113 0.0 0.0 0.00 0.00 0.00 86 1015.6
20260902030527 75 113 0.0 0.0 0.00 0.00 0.00 85 1015.6
20260902030135 75 113 0.0 0.0 0.00 0.00 0.00 85 1015.6
20260902025552 76 113 0.0 0.0 0.00 0.00 0.00 85 1015.7
20260902025044 76 113 0.0 0.0 0.00 0.00 0.00 84 1015.7
20260902024536 76 113 0.0 0.0 0.00 0.00 0.00 84 1015.7
20260902024026 76 113 0.0 0.0 0.00 0.00 0.00 83 1015.7
20260902023508 76 113 0.0 0.0 0.00 0.00 0.00 82 1015.7
20260902023100 76 113 0.0 0.0 0.00 0.00 0.00 83 1015.6
20260902022551 76 113 0.0 0.0 0.00 0.00 0.00 83 1015.7
20260902022041 76 113 0.0 0.0 0.00 0.00 0.00 83 1015.7
20260902021530 77 113 0.0 0.0 0.00 0.00 0.00 82 1015.6
20260902021011 77 113 0.0 0.0 0.00 0.00 0.00 81 1015.6
20260902020600 77 113 0.0 0.0 0.00 0.00 0.00 80 1015.6
20260902020055 77 113 0.0 0.0 0.00 0.00 0.00 81 1015.6
20260902015524 76 113 0.0 0.0 0.00 0.00 0.00 82 1015.6
20260902015008 76 113 0.0 0.0 0.00 0.00 0.00 83 1015.6
20260902014606 76 113 0.0 0.0 0.00 0.00 0.00 84 1015.6
20260902014056 76 113 0.0 0.0 0.00 0.00 0.00 84 1015.6
20260902013547 76 113 0.0 0.0 0.00 0.00 0.00 83 1015.6
20260902013038 77 113 0.0 0.0 0.00 0.00 0.00 83 1015.6
20260902012517 77 113 0.0 0.0 0.00 0.00 0.00 82 1015.5
20260902012006 77 113 0.0 0.0 0.00 0.00 0.00 82 1015.4
20260902011555 77 113 0.0 0.0 0.00 0.00 0.00 81 1015.4
20260902011049 78 113 0.0 0.0 0.00 0.00 0.00 80 1015.3
20260902010532 78 113 0.0 0.0 0.00 0.00 0.00 80 1015.3
20260902010137 78 113 0.0 0.0 0.00 0.00 0.00 78 1015.2
20260902005546 79 113 0.0 0.0 0.00 0.00 0.00 77 1015.2
20260902005037 79 113 0.0 0.0 0.00 0.00 0.00 76 1015.1
20260902004523 80 113 0.0 0.0 0.00 0.00 0.00 74 1015.2
20260902004004 80 113 0.0 0.0 0.00 0.00 0.00 74 1015.1
20260902003557 80 113 0.0 0.0 0.00 0.00 0.00 74 1015.1
20260902003042 80 113 0.0 0.0 0.00 0.00 0.00 73 1015.1
20260902002536 81 113 0.0 0.0 0.00 0.00 0.00 72 1015.1
20260902002031 81 113 0.0 0.0 0.00 0.00 0.00 71 1015.1
20260902001504 81 113 0.0 0.0 0.00 0.00 0.00 71 1015.2
20260902001056 81 113 0.0 0.0 0.00 0.00 0.00 71 1015.2
20260902000544 82 113 0.0 0.0 0.00 0.00 0.00 70 1015.3
20260902000025 82 113 0.0 0.0 0.00 0.00 0.00 69 1015.3
20260901235507 83 113 0.0 0.0 0.00 0.00 0.00 67 1015.3
20260901235058 83 113 0.0 0.0 0.00 0.00 0.00 67 1015.3
20260901234549 83 113 0.0 0.0 0.00 0.00 0.00 66 1015.4
20260901234046 84 113 0.0 0.0 0.00 0.00 0.00 66 1015.3
20260901233536 84 113 0.0 0.0 0.00 0.00 0.00 65 1015.3
20260901233023 84 113 0.0 0.0 0.00 0.00 0.00 65 1015.4
20260901232515 85 113 0.0 0.0 0.00 0.00 0.00 66 1015.4
20260901232057 85 113 0.0 0.0 0.00 0.00 0.00 65 1015.4
20260901231545 86 110 0.0 0.0 0.00 0.00 0.00 65 1015.5
20260901231036 86 110 0.0 0.0 0.00 0.00 0.00 62 1015.3
20260901230520 87 110 0.0 0.0 0.00 0.00 0.00 62 1015.4
20260901230105 87 110 0.0 2.0 0.00 0.00 0.00 58 1015.4
20260901225540 88 110 0.0 2.0 0.00 0.00 0.00 56 1015.4
20260901225032 88 259 0.0 1.0 0.00 0.00 0.00 56 1015.3
20260901224523 88 216 0.0 2.0 0.00 0.00 0.00 54 1015.3
20260901224000 88 45 0.0 3.0 0.00 0.00 0.00 58 1015.3
20260901223555 89 46 0.0 3.0 0.00 0.00 0.00 58 1015.3
20260901223102 89 288 0.0 0.0 0.00 0.00 0.00 55 1015.3
20260901222533 89 295 0.0 0.0 0.00 0.00 0.00 55 1015.2
20260901222018 90 78 0.0 0.0 0.00 0.00 0.00 56 1015.2
20260901221602 90 78 0.0 1.0 0.00 0.00 0.00 56 1015.3
20260901221054 90 153 0.0 2.0 0.00 0.00 0.00 53 1015.2
20260901220538 91 122 0.0 2.0 0.00 0.00 0.00 56 1015.1
20260901220010 91 58 0.0 2.0 0.00 0.00 0.00 55 1015.2
20260901215501 91 54 0.0 2.0 0.00 0.00 0.00 53 1015.1
20260901215053 91 254 0.0 1.0 0.00 0.00 0.00 54 1015.2
20260901214540 92 254 0.0 1.0 0.00 0.00 0.00 52 1015.1
20260901214035 93 248 0.0 3.0 0.00 0.00 0.00 48 1015.1
20260901213510 94 203 0.0 1.0 0.00 0.00 0.00 48 1015.2
20260901213102 94 287 0.0 2.0 0.00 0.00 0.00 48 1015.2
20260901212552 94 260 0.0 2.0 0.00 0.00 0.00 50 1015.1
20260901212043 94 293 0.0 1.0 0.00 0.00 0.00 51 1015.2
20260901211533 95 18 0.0 1.0 0.00 0.00 0.00 51 1015.2
20260901211020 95 330 0.0 2.0 0.00 0.00 0.00 48 1015.1
20260901210504 95 226 0.0 4.0 0.00 0.00 0.00 48 1015.3
20260901210109 96 359 0.0 4.0 0.00 0.00 0.00 50 1015.2
20260901205531 95 32 0.0 3.0 0.00 0.00 0.00 48 1015.2
20260901205013 96 304 0.0 3.0 0.00 0.00 0.00 45 1015.3
20260901204504 96 236 0.0 1.0 0.00 0.00 0.00 47 1015.4
20260901204057 96 136 0.0 2.0 0.00 0.00 0.00 46 1015.4